     2              OBSERVATION DATA    GPS                 RINEX VERSION / TYPE
teqc 1997Sep10 19970910 19:04:56UTC                         PGM / RUN BY / DATE
                                                            COMMENT
BIT 2 OF LLI FLAGS DATA COLLECTED UNDER A-S CONDITION       COMMENT
BIT 2 OF LLI FLAGS DATA COLLECTED UNDER A-S CONDITION       COMMENT
Original Marker Name: unknown                               COMMENT
Campaign Name: Southern California GPS Survey March - A     COMMENT
4-Character Station Name: RICE                              COMMENT
6-Character Antenna Code: TI4100                            COMMENT
Vertical Measurement Point: PAE                             COMMENT
Vertical Offset to Rinex Ref. Point: 0.0000                 COMMENT
Radial Measurement Point: RRP                               COMMENT
Radial Offset to Rinex Ref. Point: 0.0000                   COMMENT
Antenna Height from Field Measurement: 1.5919 m             COMMENT
Original XYZ: 0.0000 0.0000 0.0000                          COMMENT
New XYZ position is based on association with SCEC monument COMMENT
E1D1Q6V9+0011. Position of that monument is believed to be  COMMENT
valid to within 1 m horizontally; vertical accuracy         COMMENT
should be no worse than 3-times this value.                 COMMENT
                                                            COMMENT
Revised Rinex header created by UCSD GPS archive for        COMMENT
GSAC on 28-May-1999 (1999:148) 21:54:35 GMT                 COMMENT
For assistance contact dagnew@ucsd.edu or hjohnson@ucsd.edu COMMENT
                                                            COMMENT
RICE                                                        MARKER NAME
unknown NATIONAL GEODETIC SURVEY                            OBSERVER / AGENCY
103 TI 4100 GSI TI4100                                      REC # / TYPE / VERS
133 TI 4100                                                 ANT # / TYPE
 -2219590.0000 -4800542.0000  3553420.0000                  APPROX POSITION XYZ
        1.5919        0.0000        0.0000                  ANTENNA: DELTA H/E/N
     1     1     0                                          WAVELENGTH FACT L1/2
     6    L1    L2    P1    P2    D1    D2                  # / TYPES OF OBSERV
     0                                                      INTERVAL
  1988     3    22     3    29   38.000000                  TIME OF FIRST OBS
  1988     3    22     8    31   59.000000                  TIME OF LAST OBS
     0                                                      # OF SATELLITES
                                                            END OF HEADER
 88  3 22  3 29 38.3800000  0  3G 6G 9G11
   4841345.121 9  -7859447.196 8  17649690.663    17649692.729        1748.218
      1370.618
    138547.491 8                                                        -0.500 1
      3066.618
   1166549.996 8  -3603226.742 8  18848214.462    18848218.892        3047.273
      2356.752
 88  3 22  3 52 29.0800000  0  3G 6G 9G11
   2690103.182 9  -9535738.694 9  17240321.015    17240324.477        1352.299
      1055.101
  -4052590.064 7  -3260278.536 9  19474000.169    19474005.109        3032.161
      2363.108
  -2578169.612 8  -6521188.115 8  18135616.299    18135621.722        2420.528
      1858.294
 88  3 22  3 52 59.0800000  0  3G 6G 9G11
   2649459.394 8  -9567409.167 9  17232587.286    17232589.772        1340.737
      1056.412
  -4143874.012 7  -3331408.811 9  19456629.467    19456634.082        3026.970
      2368.384
  -2650210.021 8  -6577323.468 8  18121907.018    18121911.248        2382.156
      1866.708
 88  3 22  3 53 29.0800000  0  3G 6G 9G11
   2609128.595 8  -9598835.745 8  17224910.999    17224915.791        1338.871
      1047.302
  -4235110.376 8  -3402501.995 8  19439268.343    19439272.660        3038.900
      2361.890
  -2721794.229 8  -6633103.319 7  18108284.828    18108290.250        2378.982
      1845.227
 88  3 22  3 53 59.0800000  0  3G 6G 9G11
   2569112.536 9  -9630017.079 9  17217297.266    17217300.152        1329.899
      1035.285
  -4326297.533 7  -3473556.859 9  19421915.518    19421920.810        3038.629
      2363.724
  -2792921.182 8  -6688526.889 7  18094749.559    18094754.981        2368.232
      1853.000
 88  3 22  3 54 29.0800000  0  3G 6G 9G11
   2529412.874 8  -9660951.866 9  17209741.393    17209746.081        1332.292
      1026.287
  -4417434.330 7  -3544572.434 8  19404572.881    19404577.427        3054.585
      2374.728
  -2863589.783 8  -6743593.312 7  18081302.739    18081306.982        2358.129
      1833.135
 88  3 22  3 54 59.0800000  0  3G 6G 9G11
   2490033.310 8  -9691637.222 8  17202248.773    17202251.308        1312.196
      1017.395
  -4508517.400 9  -3615546.187 9  19387240.676    19387244.536        3045.774
      2369.055
  -2933796.854 8  -6798300.084 8  18067942.384    18067947.171        2333.145
      1818.389
 88  3 22  3 55 29.0800000  0  3G 6G 9G11
   2450973.767 9  -9722073.210 8  17194815.343    17194819.209        1303.337
      1009.473
  -4599547.333 8  -3686478.536 9  19369918.447    19369922.354        3051.898
      2379.842
  -3003543.351 8  -6852647.974 8  18054670.252    18054674.566        2313.608
      1815.916
 88  3 22  3 55 59.0800000  0  3G 6G 9G11
   2412237.624 9  -9752257.218 8  17187444.797    17187448.287        1286.997
       995.106
  -4690520.968 8  -3757367.007 9  19352606.456    19352610.141        3041.643
      2354.527
  -3072826.553 7  -6906634.853 7  18041486.901    18041488.838        2309.071
      1817.060
 88  3 22  3 56 29.0800000  0  3G 6G 9G11
   2373829.593 8  -9782185.540 9  17180135.575    17180139.620        1277.013
       983.617
  -4781433.758 8  -3828208.087 8  19335305.218    19335308.752        3034.570
      2369.844
  -3141642.431 8  -6960257.581 8  18028390.450    18028395.272        2307.723
      1793.826
 88  3 22  3 56 59.0800000  0  3G 6G 9G11
   2335750.505 8  -9811857.543 8  17172889.202    17172892.470        1263.768
       983.356
  -4872285.703 8  -3899001.755 9  19318017.918    19318021.010        3023.509
      2359.107
  -3209991.061 8  -7013516.242 8  18015383.726    18015389.258        2270.873
      1762.167
 88  3 22  3 57 29.0800000  0  3G 6G 9G11
   2298002.205 9  -9841271.789 8  17165705.203    17165709.491        1258.776
       993.025
  -4963074.903 9  -3969746.519 9  19300740.992    19300744.734        3038.302
      2354.291
  -3277871.016 8  -7066409.679 7  18002467.680    18002471.852        2241.695
      1754.319
 88  3 22  3 57 59.0800000  0  3G 6G 9G11
   2260586.122 8  -9870427.182 8  17158586.351    17158589.334        1216.337
       955.096
  -5053800.195 9  -4040441.494 9  19283476.223    19283480.694        3031.874
      2359.448
  -3345281.718 9  -7118937.483 8  17989639.823    17989645.182        2237.931
      1739.443
 88  3 22  3 58 29.0800000  0  3G 6G 9G11
   2223506.383 8  -9899320.465 8  17151529.167    17151533.762        1237.684
       960.222
  -5144457.908 8  -4111083.814 8  19266224.703    19266228.437        3025.248
      2347.431
  -3412219.660 8  -7171096.888 8  17976900.915    17976906.252        2236.273
      1732.565
 88  3 22  3 58 59.0800000  0  3G 6G 9G11
   2186765.795 8  -9927949.479 8  17144538.829    17144542.640        1222.277
       939.586
  -5235045.271 8  -4181671.315 9  19248987.041    19248990.579        3009.937
      2344.958
  -3478682.667 8  -7222886.229 8  17964253.642    17964258.780        2213.570
      1728.395
 88  3 22  3 59 29.0800000  0  3G 6G 9G11
   2150364.590 8  -9956314.041 8  17137611.854    17137615.318        1197.318
       950.280
  -5325562.639 9  -4252204.298 8  19231761.949    19231766.260        3013.565
      2360.387
  -3544671.431 9  -7274306.004 8  17951696.547    17951699.924        2193.666
      1711.195
 88  3 22  3 59 59.0800000  0  3G 6G 9G11
   2114304.523 9  -9984412.779 8  17130750.436    17130753.940        1193.004
       943.495
  -5416008.339 8  -4322681.401 8  19214549.504    19214554.544        3032.105
      2351.352
  -3610184.947 8  -7325355.480 7  17939229.889    17939234.333        2200.699
      1696.382
 88  3 22  4  0 29.0800000  0  3G 6G 9G11
   2078588.792 9 -10012243.213 8  17123953.242    17123956.088        1179.710
       931.906
  -5506379.241 7  -4393100.237 8  19197353.659    19197356.825        3011.516
      2346.486
  -3675221.367 9  -7376033.166 8  17926853.427    17926858.879        2158.028
      1700.576
 88  3 22  4  0 59.0800000  0  3G 6G 9G11
   2043220.871 8 -10039802.621 8  17117222.615    17117226.076        1175.428
       907.865
  -5596672.424 8  -4463458.507 7  19180170.015    19180175.545        3016.348
      2347.878
  -3739777.852 8  -7426336.908 9  17914568.375    17914573.207        2148.140
      1650.052
 88  3 22  4  1 29.0800000  0  3G 6G 9G11
   2008203.611 7 -10067088.782 8  17110559.031    17110562.527        1185.428
       910.854
  -5686885.085 7  -4533754.024 8  19163004.445    19163008.118        3011.165
      2349.885
  -3803852.133 9  -7476264.884 7  17902375.986    17902381.567        2136.785
      1662.498
 88  3 22  4  1 59.0800000  0  3G 6G 9G11
   1973539.831 9 -10094099.515 9  17103963.246    17103966.461        1143.395
       892.492
  -5777014.703 8  -4603984.830 9  19145853.404    19145856.577        3009.729
      2337.961
  -3867442.629 8  -7525815.899 8  17890274.695    17890280.735        2134.010
      1642.496
 88  3 22  4  2 29.0800000  0  3G 6G 9G11
   1939228.240 9 -10120835.806 8  17097433.137    17097437.164        1143.196
       899.899
  -5867062.489 7  -4674151.885 8  19128716.999    19128720.856        3020.351
      2351.029
  -3930551.273 8  -7574991.433 8  17878265.201    17878269.345        2076.786
      1634.853
 88  3 22  4  2 59.0800000  0  3G 6G 9G11
   1905271.556 7 -10147295.555 7  17090971.395    17090975.167        1148.802
       872.919
  -5957026.285 7  -4744253.469 8  19111595.642    19111601.101        2988.940
      2337.383
  -3993176.341 8  -7623790.142 8  17866347.372    17866353.159        2098.827
      1635.636
 88  3 22  4  3 29.0800000  0  3G 6G 9G11
   1871673.496 9 -10173475.854 8  17084577.609    17084582.484        1113.603
       868.544
  -6046902.135 8  -4814286.543 8  19094493.724    19094498.449        3006.404
      2342.037
  -4055314.824 9  -7672209.722 7  17854523.754    17854529.049        2084.656
      1609.066
 88  3 22  4  3 59.0800000  0  3G 6G 9G11
   1838438.484 8 -10199373.248 9  17078253.882    17078256.596        1091.043
       862.380
  -6136686.153 9  -4884248.037 9  19077408.986    19077413.768        2987.058
      2339.129
  -4116963.181 9  -7720247.366 7  17842793.585    17842797.191        2052.950
      1598.819
 88  3 22  4  4 29.0800000  0  3G 6G 9G11
   1805568.394 9 -10224986.300 9  17071999.333    17072002.784        1076.825
       845.025
  -6226376.161 9  -4954136.312 8  19060342.067    19060346.066        2981.460
      2331.499
  -4178120.987 8  -7767902.781 8  17831156.177    17831160.255        2034.976
      1583.925
 88  3 22  4  4 59.0800000  0  3G 6G 9G11
   1773062.896 9 -10250315.248 8  17065813.843    17065816.650        1091.259
       845.845
  -6315972.790 8  -5023951.810 8  19043291.642    19043295.795        2992.242
      2329.908
  -4238789.182 8  -7815176.677 7  17819610.207    17819615.660        2012.337
      1579.010
 88  3 22  4  5 29.0800000  0  3G 6G 9G11
   1740923.019 9 -10275359.294 8  17059698.179    17059701.189        1060.079
       834.611
  -6405475.058 8  -5093693.805 8  19026260.064    19026264.100        2980.966
      2324.260
  -4298967.694 8  -7862069.006 8  17808158.824    17808163.368        1989.546
      1551.284
 88  3 22  4  5 59.0800000  0  3G 6G 9G11
   1709153.531 9 -10300114.736 8  17053652.936    17053654.641        1078.197
       821.518
  -6494878.254 8  -5163358.574 9  19009247.288    19009251.723        2987.768
      2329.697
  -4358653.358 8  -7908577.289 8  17796800.887    17796805.424        1979.474
      1534.109
 88  3 22  4  6 29.0800000  0  3G 6G 9G11
   1677756.957 9 -10324579.584 9  17047677.299    17047681.182        1035.215
       805.443
  -6584179.916 8  -5232944.223 8  18992253.640    18992257.640        2971.803
      2324.334
  -4417844.377 8  -7954700.130 8  17785536.857    17785541.516        1964.403
      1523.862
 88  3 22  4  6 59.0800000  0  3G 6G 9G11
   1646736.511 8 -10348751.364 9  17041774.584    17041777.924        1021.563
       792.587
  -6673376.975 9  -5302448.373 9  18975279.476    18975283.508        2963.606
      2304.966
  -4476538.383 8  -8000435.694 8  17774367.896    17774371.187        1953.582
      1513.435
 88  3 22  4  7 29.0800000  0  3G 6G 9G11
   1616091.877 9 -10372630.298 8  17035942.622    17035945.959        1024.840
       803.026
  -6762469.635 8  -5371871.177 8  18958326.779    18958329.869        2991.117
      2322.837
  -4534736.846 8  -8045785.122 7  17763293.773    17763297.766        1936.891
      1505.929
 88  3 22  4  7 59.0800000  0  3G 6G 9G11
   1585826.120 8 -10396213.984 9  17030183.718    17030186.557         983.820
       775.002
  -6851455.009 9  -5441210.364 9  18941392.533    18941397.415        2964.403
      2309.291
  -4592437.887 9  -8090746.941 8  17752312.682    17752319.186        1930.863
      1487.288
 88  3 22  4  8 29.0800000  0  3G 6G 9G11
   1555942.679 8 -10419499.780 8  17024497.233    17024500.065         993.900
       765.066
  -6940329.238 8  -5510462.973 8  18924480.662    18924484.151        2965.639
      2304.724
  -4649638.963 8  -8135319.190 7  17741428.692    17741432.434        1907.051
      1486.070
 88  3 22  4  8 59.0800000  0  3G 6G 9G11
   1526443.046 8 -10442486.496 8  17018882.843    17018886.121         987.114
       751.588
  -7029091.321 8  -5579628.201 9  18907588.846    18907592.681        2956.070
      2307.594
  -4706339.763 7  -8179501.617 8  17730638.339    17730641.551        1874.739
      1459.177
 88  3 22  4  9 29.0800000  0  3G 6G 9G11
   1497330.334 8 -10465171.717 9  17013342.730    17013346.134         953.924
       769.639
  -7117737.924 8  -5648703.434 7  18890720.468    18890723.707        2938.303
      2312.733
  -4762538.293 7  -8223292.660 7  17719943.410    17719948.541        1858.727
      1460.923
 88  3 22  4  9 59.0800000  0  3G 6G 9G11
   1468606.620 8 -10487553.831 8  17007877.593    17007880.529         990.758
       741.944
  -7206266.913 8  -5717687.004 8  18873873.443    18873876.763        2956.939
      2307.669
  -4818233.911 8  -8266691.809 7  17709345.919    17709349.905        1852.658
      1441.430
 88  3 22  4 10 29.0800000  0  3G 6G 9G11
   1440270.473 9 -10509633.940 8  17002483.850    17002488.471         959.754
       738.657
  -7294679.820 9  -5786580.133 7  18857050.122    18857054.161        2964.435
      2297.590
  -4873429.176 8  -8309701.102 8  17698842.048    17698845.869        1840.178
      1419.471
 88  3 22  4 10 59.0800000  0  3G 6G 9G11
   1412324.657 8 -10531409.884 9  16997167.321    16997171.155         922.338
       721.737
  -7382973.276 7  -5855380.182 8  18840247.666    18840251.561        2947.107
      2294.800
  -4928122.382 8  -8352319.170 7  17688434.246    17688437.975        1828.472
      1413.375
 88  3 22  4 11 29.0800000  0  3G 6G 9G11
   1384777.271 9 -10552875.381 8  16991925.316    16991928.494         896.094
       716.996
  -7471139.525 8  -5924081.109 8  18823470.983    18823474.002        2937.147
      2293.216
  -4982306.578 8  -8394540.596 8  17678123.559    17678127.988        1800.658
      1397.269
 88  3 22  4 11 59.0800000  0  3G 6G 9G11
   1357630.021 8 -10574029.071 9  16986758.698    16986761.848         906.278
       713.864
  -7559176.499 8  -5992681.314 9  18806718.839    18806721.511        2944.124
      2290.183
  -5035981.148 8  -8436364.908 7  17667910.182    17667913.287        1781.080
      1383.400
 88  3 22  4 12 29.0800000  0  3G 6G 9G11
   1330880.830 8 -10594872.587 8  16981669.192    16981672.349         881.685
       686.232
  -7647086.283 8  -6061182.387 8  18789990.595    18789993.682        2920.153
      2268.112
  -5089149.515 8  -8477794.799 7  17657790.826    17657794.433        1767.715
      1375.421
 88  3 22  4 12 59.0800000  0  3G 6G 9G11
   1304531.896 8 -10615404.221 8  16976654.992    16976659.086         875.600
       697.926
  -7734866.503 8  -6129582.530 8  18773285.239    18773289.103        2932.562
      2275.301
  -5141810.644 8  -8518829.407 8  17647771.164    17647774.934        1740.579
      1373.743
 88  3 22  4 13 29.0800000  0  3G 6G 9G11
   1278587.296 8 -10635620.792 8  16971717.190    16971719.693         868.551
       669.473
  -7822513.102 8  -6197878.545 8  18756607.697    18756610.781        2922.793
      2275.152
  -5193961.760 8  -8559466.624 8  17637845.716    17637851.248        1730.348
      1336.672
 88  3 22  4 13 59.0800000  0  3G 6G 9G11
   1253049.019 8 -10655520.730 8  16966857.642    16966861.734         832.650
       652.920
  -7910023.438 8  -6266068.373 8  18739953.376    18739957.759        2898.599
      2268.460
  -5245602.200 8  -8599705.911 7  17628019.057    17628024.330        1730.523
      1338.051
 88  3 22  4 14 29.0800000  0  3G 6G 9G11
   1227918.961 8 -10675102.591 8  16962075.653    16962080.388         835.505
       631.097
  -7997395.768 8  -6334150.669 8  18723327.005    18723331.333        2919.906
      2272.362
  -5296731.375 8  -8639546.814 7  17618289.971    17618295.073        1706.456
      1323.859
 88  3 22  4 14 59.0800000  0  3G 6G 9G11
   1203198.356 8 -10694365.399 9  16957371.994    16957375.163         819.246
       634.154
  -8084628.533 8  -6402124.212 8  18706727.823    18706730.749        2882.523
      2265.086
  -5347349.353 8  -8678989.383 8  17608656.580    17608662.462        1683.235
      1320.796
 88  3 22  4 15 29.0800000  0  3G 6G 9G11
   1178889.501 8 -10713307.366 8  16952745.713    16952748.399         801.526
       626.847
  -8171719.127 9  -6469986.968 7  18690155.811    18690158.573        2916.007
      2252.845
  -5397455.082 8  -8718032.779 8  17599122.645    17599127.833        1672.366
      1291.846
 88  3 22  4 15 59.0800000  0  3G 6G 9G11
   1154996.018 8 -10731925.669 8  16948198.974    16948202.608         782.149
       624.150
  -8258663.740 8  -6537735.968 9  18673609.773    18673613.060        2911.079
      2263.998
  -5447046.233 7  -8756675.197 7  17589686.196    17589691.318        1644.719
      1272.005
 88  3 22  4 16 29.0800000  0  3G 6G 9G11
   1131520.924 8 -10750217.949 8  16943731.664    16943735.280         791.527
       617.663
  -8345459.198 9  -6605368.768 9  18657093.173    18657096.557        2886.613
      2256.163
  -5496121.078 8  -8794915.324 7  17580348.022    17580351.813        1628.491
      1267.581
 88  3 22  4 16 59.0800000  0  3G 6G 9G11
   1108465.036 8 -10768183.574 8  16939344.388    16939348.461         755.586
       588.526
  -8432103.943 9  -6672884.104 8  18640604.854    18640608.896        2883.998
      2256.579
  -5544680.307 8  -8832753.659 8  17571107.608    17571110.863        1616.051
      1269.159
 88  3 22  4 17 29.0800000  0  3G 6G 9G11
   1085829.631 8 -10785821.555 8  16935037.126    16935040.634         745.020
       587.942
  -8518596.873 8  -6740281.135 8  18624146.579    18624149.994        2868.248
      2240.106
  -5592723.850 8  -8870190.157 7  17561964.599    17561968.592        1618.101
      1239.389
 88  3 22  4 17 59.0800000  0  3G 6G 9G11
   1063616.021 8 -10803130.849 7  16930810.054    16930814.147         732.397
       563.497
  -8604935.916 9  -6807558.285 8  18607715.874    18607719.634        2886.127
      2241.940
  -5640251.944 8  -8907225.021 7  17552920.218    17552925.614        1589.090
      1228.714
 88  3 22  4 18 29.0800000  0  3G 6G 9G11
   1041828.752 8 -10820107.948 7  16926664.185    16926667.336         698.482
       571.724
  -8691116.509 8  -6874711.958 7  18591316.668    18591319.474        2860.944
      2229.816
  -5687261.416 8  -8943855.767 7  17543975.301    17543978.957        1552.854
      1222.780
 88  3 22  4 18 59.0800000  0  3G 6G 9G11
   1020471.397 9 -10836750.045 8  16922599.402    16922603.869         725.419
       535.728
  -8777134.756 7  -6941739.121 9  18574946.887    18574950.649        2875.832
      2231.886
  -5733750.232 7  -8980080.790 7  17535127.620    17535133.530        1525.159
      1221.437
 88  3 22  4 19 29.0800000  0  3G 6G 9G11
    999543.569 7 -10853057.435 9  16918618.588    16918621.505         699.335
       537.815
  -8862990.499 8  -7008639.651 8  18558610.537    18558612.605        2838.839
      2244.773
  -5779719.895 7  -9015901.288 7  17526379.236    17526385.496        1527.352
      1197.514
 88  3 22  4 19 59.0800000  0  3G 6G 9G11
    979048.477 9 -10869027.651 7  16914716.378    16914721.318         667.406
       536.859
  -8948680.165 8  -7075410.793 8  18542303.310    18542306.437        2852.611
      2218.259
  -5825168.908 8  -9051316.083 7  17517732.069    17517735.897        1505.487
      1167.825
 88  3 22  4 20 29.0800000  0  3G 6G 9G11
    958985.043 8 -10884661.482 8  16910900.005    16910902.818         646.314
       513.389
  -9034204.220 8  -7142052.884 9  18526028.640    18526031.728        2877.913
      2226.399
  -5870099.457 7  -9086326.889 8  17509182.653    17509186.490        1483.390
      1177.083
 88  3 22  4 20 59.0800000  0  3G 6G 9G11
    939356.468 9 -10899956.465 8  16907165.670    16907167.864         667.637
       517.819
  -9119559.265 8  -7208563.276 8  18509785.698    18509790.103        2850.370
      2217.737
  -5914509.864 8  -9120932.368 8  17500730.381    17500735.919        1465.623
      1138.856
 88  3 22  4 21 29.0800000  0  3G 6G 9G11
    920168.989 9 -10914907.751 8  16903513.953    16903516.391         637.303
       505.988
  -9204738.576 8  -7274936.723 8  18493577.630    18493580.653        2846.973
      2206.291
  -5958395.626 9  -9155129.047 8  17492378.966    17492383.675        1479.052
      1126.652
 88  3 22  4 21 59.0800000  0  4G 6G 9G11G13
    901422.139 8 -10929515.684 8  16899945.428    16899949.308         623.874
       487.328
  -9289741.769 1  -7341172.958 1  18477409.759    18477411.121        2762.477
      2240.082
  -6001758.384 7  -9188918.179 6  17484126.217    17484133.004        1408.128
      1127.081
 -18801719.519 6                                  23869320.000 1      3704.639

